DateTimeUTC,F1_A11,F1_S11,BsB_S11,BsG_S11,BsR_S11,BbsB_S11,BbsG_S11,BbsR_S11,BaB_A11,BaG_A11,BaR_A11,Tu_S11,T_S11,Uu_S11,U_S11,P_S11,T1_A11
2021-04-30T12:00:00Z,00000200,21000000,,,,,,,0000.48,0000.42,0000.69,17.1,24.1,00.1,00.1,0681.6,31.0
2021-04-30T12:01:00Z,00000200,21000000,,,,,,,0000.50,0000.37,-000.22,17.1,24.1,,00.0,0681.6,31.0
2021-04-30T12:02:00Z,00000200,21000000,,,,,,,0000.01,0000.58,0000.16,17.1,24.1,00.0,00.0,0681.6,31.0
2021-04-30T12:03:00Z,00000200,61000000,,,,,,,0001.09,0000.49,0000.62,17.1,24.1,00.3,00.2,0681.6,31.0
2021-04-30T12:04:00Z,00000200,41000000,0000.82,0000.41,0000.23,0000.05,0000.25,-000.14,0000.17,0000.51,0000.48,17.2,24.0,00.8,00.5,0682.6,31.0
2021-04-30T12:05:00Z,00000200,01000000,0001.49,0000.49,0000.43,-000.06,0000.08,-000.13,0000.98,0000.26,0000.47,17.3,24.0,01.0,00.6,0682.7,31.0
2021-04-30T12:06:00Z,00000200,01000000,0001.21,0000.29,-000.07,-000.34,0000.01,-000.23,0000.09,0000.54,-000.11,17.3,24.0,01.1,00.7,0682.7,31.0
2021-04-30T12:07:00Z,00000200,01000000,0001.05,0000.67,0000.12,0000.12,0000.02,-000.28,0000.27,0000.18,-000.09,17.3,23.9,01.1,00.7,0682.7,31.0
2021-04-30T12:08:00Z,00000200,01000000,0001.02,0000.63,0000.39,0000.25,-000.13,-000.10,-000.17,-000.18,0000.02,17.3,24.0,01.0,00.7,0682.7,31.0
2021-04-30T12:09:00Z,00000200,01000000,0000.85,0000.52,0000.07,0000.14,0000.05,0000.13,0000.01,0000.28,0000.35,17.3,23.9,00.9,00.6,0682.7,31.0
2021-04-30T12:10:00Z,00000200,01000000,0001.01,0000.51,0000.39,-000.38,0000.25,-000.05,0000.51,0000.01,0000.06,17.4,24.0,00.9,00.6,0682.7,31.0
2021-04-30T12:11:00Z,00000200,01000000,0000.61,0000.31,0000.45,-000.12,-000.09,0000.08,0000.49,0000.71,0000.05,17.4,24.0,00.9,00.6,0682.7,31.0
2021-04-30T12:12:00Z,00000200,01000000,0001.05,0000.59,0000.34,0000.55,0000.15,0000.07,-000.23,-000.02,0000.28,17.3,24.0,00.9,00.6,0682.7,31.0
2021-04-30T12:13:00Z,00000200,01000000,0001.50,0000.96,-000.04,0000.35,0000.22,0000.18,0000.54,0000.01,0000.25,17.3,23.9,01.0,00.7,0682.6,31.0
2021-04-30T12:14:00Z,00000200,01000000,0000.99,0000.51,0000.60,0000.20,-000.09,-000.08,0000.21,0000.33,0000.14,17.3,23.9,01.1,00.7,0682.6,31.0
2021-04-30T12:15:00Z,00000200,01000000,0001.15,0000.62,0000.41,-000.25,-000.11,0000.14,0000.37,0000.27,0000.41,17.3,23.9,01.1,00.7,0682.6,31.0
2021-04-30T12:16:00Z,00000200,01000000,0001.02,0000.63,0000.38,-000.47,0000.28,-000.15,0000.54,0000.70,0000.39,17.3,23.9,01.2,00.8,0682.6,31.0
2021-04-30T12:17:00Z,00000200,01000000,0000.86,0000.59,0000.15,-000.08,0000.08,-000.12,0000.40,0000.09,0000.16,17.3,23.9,01.3,00.9,0682.6,31.0
2021-04-30T12:18:00Z,00000200,01000000,0000.75,0000.50,0000.12,-000.42,-000.02,-000.09,0000.24,0000.75,0000.20,17.3,24.0,01.2,00.8,0682.6,31.0
2021-04-30T12:19:00Z,00000200,01000000,0001.48,0000.76,0000.23,0000.09,0000.21,0000.01,0000.58,-000.08,0000.03,17.4,24.0,01.4,00.9,0682.6,31.0
2021-04-30T12:20:00Z,00000200,01000000,0001.15,0000.72,0000.10,-000.28,0000.36,-000.19,0000.27,0000.58,0000.35,17.4,24.0,01.2,00.8,0682.6,31.0
2021-04-30T12:21:00Z,00000200,01000000,0001.51,0001.02,0000.48,0000.12,0000.09,0000.03,-000.20,-000.16,-000.21,17.4,24.0,01.3,00.9,0682.6,31.0
2021-04-30T12:22:00Z,00000200,01000000,0000.99,0000.66,0000.13,0000.01,0000.25,-000.15,0000.49,0000.31,0000.40,17.5,24.0,01.3,00.9,0682.6,31.0
2021-04-30T12:23:00Z,00000200,01000000,0001.12,0000.91,0000.34,-000.21,0000.20,-000.06,0000.27,0000.40,0000.40,17.5,24.0,01.3,00.8,0682.6,31.0
2021-04-30T12:24:00Z,00000200,01000000,0001.11,0000.79,0000.22,0000.41,0000.02,-000.13,0000.35,0000.34,0000.01,17.5,24.0,01.3,00.9,0682.6,31.1
2021-04-30T12:25:00Z,00000200,01000000,0001.81,0000.89,0000.35,0000.48,0000.02,-000.11,-000.41,-000.71,-000.06,17.6,24.1,01.1,00.8,0682.6,31.1
2021-04-30T12:26:00Z,00000200,01000000,0001.07,0000.53,0000.45,0000.29,0000.03,-000.05,0000.64,0000.73,0000.27,17.6,24.0,01.0,00.7,0682.6,31.1
2021-04-30T12:27:00Z,00000200,01000000,0001.39,0000.86,0000.45,0000.61,0000.11,-000.05,-000.00,-000.18,0000.22,17.6,24.1,01.0,00.7,0682.5,31.1
2021-04-30T12:28:00Z,00000200,01000000,0000.78,0000.79,0000.06,0000.21,0000.22,-000.15,0000.42,0000.82,0000.42,17.6,24.1,00.9,00.6,0682.6,31.1
2021-04-30T12:29:00Z,00000200,01000000,0000.91,0000.41,0000.30,0000.28,0000.43,-000.15,0000.13,-000.16,-000.34,17.6,24.1,00.9,00.6,0682.6,31.0
2021-04-30T12:30:00Z,00000200,01000000,0001.51,0000.56,0000.11,0000.03,0000.19,-000.15,-000.09,0000.00,0000.60,17.6,24.1,00.9,00.6,0682.6,31.0
2021-04-30T12:31:00Z,00000200,01000000,0000.83,0000.66,-000.09,0000.28,0000.01,-000.11,0000.02,0000.11,-000.06,17.6,24.1,00.8,00.5,0682.6,31.1
2021-04-30T12:32:00Z,00000200,01000000,0001.05,0000.58,0000.54,-000.05,0000.22,0000.05,0000.37,0000.32,0000.02,17.6,24.1,00.8,00.6,0682.6,31.0
2021-04-30T12:33:00Z,00000200,01000000,0001.21,0000.79,0000.26,-000.49,0000.17,-000.32,0000.43,0000.28,0000.07,17.7,24.1,00.7,00.4,0682.5,31.0
2021-04-30T12:34:00Z,00000200,01000000,0000.92,0000.74,0000.25,0000.43,0000.12,-000.04,0000.07,0000.15,0000.19,17.7,24.1,00.7,00.5,0682.5,31.1
2021-04-30T12:35:00Z,00000200,01000000,0000.75,0000.57,0000.41,-000.17,0000.25,0000.18,0000.31,0000.39,0000.54,17.7,24.2,00.7,00.5,0682.5,31.1
2021-04-30T12:36:00Z,00000200,01000000,0001.20,0000.66,0000.46,0000.08,0000.30,0000.06,0000.66,0000.14,-000.08,17.7,24.2,00.7,00.5,0682.5,31.1
2021-04-30T12:37:00Z,00000200,01000000,0001.82,0000.56,0000.33,0000.43,0000.29,-000.10,-000.16,0000.18,0000.08,17.7,24.2,00.6,00.4,0682.5,31.1
2021-04-30T12:38:00Z,00000200,01000000,0001.47,0000.32,0000.42,-000.01,0000.10,0000.15,-000.10,0000.46,0000.44,17.7,24.2,00.5,00.3,0682.5,31.1
2021-04-30T12:39:00Z,00000200,01000000,0000.72,0000.61,0000.54,0000.29,0000.31,-000.07,0000.46,-000.26,-000.09,17.7,24.2,00.5,00.3,0682.5,31.0
2021-04-30T12:40:00Z,00000200,01000000,0001.22,0000.71,0000.23,-000.03,-000.03,-000.01,0000.37,0000.46,0000.55,17.7,24.2,00.5,00.4,0682.5,31.1
2021-04-30T12:41:00Z,00000200,01000000,0000.60,0000.67,0000.35,0000.26,0000.09,-000.08,0000.56,0000.75,0000.20,17.7,24.2,00.7,00.4,0682.5,31.0
2021-04-30T12:42:00Z,00000200,01000000,0000.46,0000.62,0000.27,0000.22,0000.15,0000.11,0000.23,0000.07,0000.05,17.8,24.3,00.7,00.5,0682.5,31.1
2021-04-30T12:43:00Z,00000200,01000000,0000.91,0000.71,0000.29,0000.21,0000.12,0000.04,-000.09,-000.21,0000.18,17.8,24.3,00.6,00.4,0682.5,31.1
2021-04-30T12:44:00Z,00000200,01000000,0001.35,0000.78,0000.27,0000.06,0000.02,-000.15,0000.41,0000.66,0000.15,17.8,24.3,00.5,00.3,0682.5,31.1
2021-04-30T12:45:00Z,00000200,01000000,0000.82,0000.80,0000.38,0000.06,0000.09,-000.06,0000.35,0000.00,-000.12,17.8,24.3,00.6,00.4,0682.6,31.1
2021-04-30T12:46:00Z,00000200,01000000,0000.32,0000.63,0000.22,-000.05,-000.04,-000.39,0000.26,0000.51,0000.21,17.8,24.3,00.5,00.4,0682.6,31.1
2021-04-30T12:47:00Z,00000200,01000000,0000.80,0000.26,0000.36,-000.36,-000.04,-000.05,0000.05,-000.32,0000.32,17.8,24.3,00.6,00.4,0682.6,31.0
2021-04-30T12:48:00Z,00000200,01000000,0001.15,0000.29,0000.17,-000.23,0000.20,-000.23,-001.04,-001.12,-000.63,17.9,24.3,00.4,00.3,0682.6,31.0
2021-04-30T12:49:00Z,00000200,01000000,0001.14,0000.70,0000.24,-000.55,0000.04,-000.05,0000.44,0000.92,0000.37,17.9,24.3,00.2,00.2,0682.6,31.0
2021-04-30T12:50:00Z,00000200,01000000,0000.90,0000.63,0000.02,0000.11,0000.07,0000.03,-001.10,-000.79,-000.59,17.9,24.3,00.2,00.1,0682.6,31.0
2021-04-30T12:51:00Z,00000200,01000000,0000.28,0000.47,0000.10,0000.13,0000.12,-000.09,0000.38,0000.09,0000.42,17.9,24.4,00.1,00.0,0682.6,31.0
2021-04-30T12:52:00Z,00000200,01000000,0001.47,0000.53,0000.12,0000.25,-000.07,-000.10,-000.19,-000.20,-000.38,17.9,24.4,00.1,00.0,0682.6,31.0
2021-04-30T12:53:00Z,00000200,01000000,0000.39,0000.31,0000.30,-000.39,0000.11,-000.09,-000.06,-000.41,-000.20,17.9,24.4,00.0,00.0,0682.6,31.0
2021-04-30T12:54:00Z,00000200,01000000,0000.99,0000.41,0000.18,-000.09,-000.01,-000.13,0000.25,0000.27,0000.44,17.9,24.4,,00.0,0682.6,31.0
2021-04-30T12:55:00Z,00000200,01000000,0000.88,0000.17,0000.19,0000.08,0000.03,0000.17,-000.13,-000.06,0000.08,17.9,24.4,,00.0,0682.6,31.0
2021-04-30T12:56:00Z,00000200,01000000,0000.82,0000.21,0000.33,-000.13,0000.12,0000.27,0000.13,0000.55,0000.17,17.9,24.4,00.0,00.0,0682.6,31.0
2021-04-30T12:57:00Z,00000200,41000000,,,,,,,0001.40,0001.34,0000.62,18.0,24.4,,00.0,0682.6,31.1
2021-04-30T12:58:00Z,00000200,61000000,,,,,,,-000.62,-000.81,-000.28,17.8,24.6,,00.0,0681.6,31.0
2021-04-30T12:59:00Z,00000200,21000000,,,,,,,0000.33,0000.11,0000.06,17.8,24.7,,00.0,0681.6,31.0
